Waukegan, IL

7:40 PM CDT on June 21, 2018 (GMT -0500)
Waukegan Regional

Weather History for KUGN - June, 2018

Change the Weather History Date:

Thursday, June 14, 2018

  Actual Average Record
Temperature  
Mean Temperature 66 °F 65 °F  
Max Temperature 77 °F 75 °F 86 °F (2001)
Min Temperature 55 °F 55 °F 45 °F (2009)
Degree Days  
Heating Degree Days 0 3  
Month to date heating degree days 45 63  
Since 1 June heating degree days 45 63  
Since 1 July heating degree days 6714 6814  
Cooling Degree Days 1 3  
Month to date cooling degree days 6 30  
Year to date cooling degree days 84 55  
Since 1 June cooling degree days 6 30  
Growing Degree Days 17 (Base 50)    
Moisture  
Dew Point 54 °F    
Average Humidity 68    
Maximum Humidity 93    
Minimum Humidity 43    
Precipitation  
Precipitation 0.00 in 0.13 in 1.19 in (2017)
Month to date precipitation 1.18 2.08  
Year to date precipitation 15.02 14.94  
Sea Level Pressure  
Sea Level Pressure 30.02 in    
Wind  
Wind Speed 4 mph (SSE)    
Max Wind Speed 9 mph    
Max Gust Speed 10 mph    
Visibility 10 miles    
Events      
T = Trace of Precipitation, MM = Missing Value Source: NWS Daily Summary

Daily Weather History Graph

Daily Weather History Graph

Search for Another Location

Airport or City:

Astronomy

Jun. 14, 2018 Rise Set
Actual Time 5:13 AM CDT 8:29 PM CDT
Civil Twilight 4:39 AM CDT 9:04 PM CDT
Nautical Twilight 3:54 AM CDT 9:49 PM CDT
Astronomical Twilight 2:59 AM CDT 10:44 PM CDT
Moon 6:12 AM CDT (6/14) 9:29 PM CDT (6/14)
Length of Visible Light 16h 25m
Length of Day
15h 16m
New Moon, 1% of the Moon is Illuminated
Jun 14
New Moon
Jun 20
First Quarter
Jun 27
Full
Jul 6
Last Quarter
Jul 12
New

Hourly Weather History & Observations

Time (CDT) Temp. Dew Point Humidity Pressure Visibility Wind Dir Wind Speed Gust Speed Precip Events Conditions
12:55 AM 62.1 °F 53.1 °F 72% 30.01 in 10.0 mi WSW 5.8 mph - N/A   Clear
1:55 AM 60.1 °F 54.0 °F 80% 30.00 in 10.0 mi WSW 3.5 mph - N/A   Clear
2:55 AM 60.1 °F 55.0 °F 83% 30.01 in 10.0 mi WSW 3.5 mph - N/A   Clear
3:55 AM 62.1 °F 54.0 °F 75% 30.02 in 10.0 mi West 4.6 mph - N/A   Clear
4:55 AM 63.0 °F 54.0 °F 72% 30.03 in 10.0 mi West 3.5 mph - N/A   Partly Cloudy
5:55 AM 62.1 °F 54.0 °F 75% 30.04 in 10.0 mi WNW 4.6 mph - N/A   Clear
6:55 AM 66.0 °F 55.0 °F 68% 30.03 in 10.0 mi West 3.5 mph - N/A   Partly Cloudy
7:55 AM 73.0 °F 55.0 °F 53% 30.04 in 10.0 mi Calm Calm - N/A   Clear
8:55 AM 75.0 °F 54.0 °F 48% 30.04 in 10.0 mi ENE 4.6 mph - N/A   Clear
9:55 AM 77.0 °F 53.1 °F 43% 30.04 in 10.0 mi East 4.6 mph - N/A   Mostly Cloudy
10:55 AM 75.9 °F 53.1 °F 45% 30.06 in 10.0 mi ESE 3.5 mph - N/A   Clear
11:55 AM 75.9 °F 54.0 °F 46% 30.06 in 10.0 mi East 6.9 mph - N/A   Clear
12:55 PM 73.9 °F 53.1 °F 48% 30.04 in 10.0 mi East 6.9 mph - N/A   Overcast
1:55 PM 72.0 °F 55.0 °F 55% 30.05 in 10.0 mi SE 4.6 mph - N/A   Mostly Cloudy
2:55 PM 72.0 °F 52.0 °F 49% 30.04 in 10.0 mi SE 4.6 mph - N/A   Partly Cloudy
3:55 PM 72.0 °F 53.1 °F 51% 30.03 in 10.0 mi SE 5.8 mph - N/A   Clear
4:55 PM 72.0 °F 53.1 °F 51% 30.01 in 10.0 mi SE 6.9 mph - N/A   Clear
5:55 PM 70.0 °F 53.1 °F 55% 29.99 in 10.0 mi SE 5.8 mph - N/A   Clear
6:55 PM 70.0 °F 53.1 °F 55% 29.97 in 10.0 mi SE 4.6 mph - N/A   Clear
7:55 PM 66.9 °F 51.1 °F 57% 29.96 in 10.0 mi SE 4.6 mph - N/A   Clear
8:55 PM 60.1 °F 53.1 °F 78% 29.99 in 10.0 mi SSW 3.5 mph - N/A   Clear
9:55 PM 59.0 °F 53.1 °F 81% 29.99 in 10.0 mi Calm Calm - N/A   Clear
10:55 PM 57.0 °F 53.1 °F 87% 30.00 in 10.0 mi Calm Calm - N/A   Clear
11:55 PM 55.0 °F 53.1 °F 93% 30.01 in 10.0 mi Calm Calm - N/A   Clear